When you browse on this site, cookies collect data to enhance your experience and personalize the content and advertising you see.
Visit our Privacy Policy to learn more. By continuing to use the site, you agree to this use of cookies and data.
  • In Spain
  • List of Countries
  • For 7 days
  • Water Temperature
  • Weather Map
  • Weather Widgets
  • user-avatar
    Login

    Hourly Weather Elbasan

    Today, 1 June, Monday

    Time Temperature Precipitation Wind Pressure Humidity
    00:00 +12°C° 0 mm 1 mps 733 mmHg 88%
    01:00 +12°C° 0 mm 1 mps 733 mmHg 88%
    02:00 +12°C° 0.2 mm 1 mps 733 mmHg 88%
    03:00 +12°C° 0.2 mm 1 mps 733 mmHg 88%
    04:00 +12°C° 0.2 mm 1 mps 733 mmHg 89%
    05:00 +13°C° 0.2 mm 1 mps 733 mmHg 87%
    06:00 +14°C° 0.2 mm 1 mps 733 mmHg 85%
    07:00 +15°C° 0.2 mm 1 mps 733 mmHg 83%
    08:00 +16°C° 0.5 mm 1 mps 733 mmHg 78%
    09:00 +17°C° 0.5 mm 2 mps 733 mmHg 73%
    10:00 +18°C° 0.5 mm 2 mps 733 mmHg 67%
    11:00 +18°C° 0.6 mm 2 mps 732 mmHg 66%
    12:00 +19°C° 0.6 mm 3 mps 732 mmHg 65%
    13:00 +19°C° 0.6 mm 3 mps 732 mmHg 64%
    14:00 +19°C° 0.6 mm 3 mps 732 mmHg 66%
    15:00 +19°C° 0.6 mm 3 mps 732 mmHg 69%
    16:00 +19°C° 0.6 mm 3 mps 732 mmHg 71%
    17:00 +17°C° 0.3 mm 2 mps 732 mmHg 76%
    18:00 +16°C° 0.3 mm 2 mps 732 mmHg 81%
    19:00 +15°C° 0.3 mm 1 mps 732 mmHg 86%
    20:00 +14°C° 0 mm 1 mps 732 mmHg 87%
    21:00 +14°C° 0 mm 1 mps 732 mmHg 89%
    22:00 +13°C° 0 mm 1 mps 732 mmHg 90%
    23:00 +13°C° 0 mm 1 mps 732 mmHg 89%

    Tomorrow, 2 June, Tuesday

    Time Temperature Precipitation Wind Pressure Humidity
    00:00 +13°C° 0 mm 1 mps 732 mmHg 89%
    01:00 +12°C° 0 mm 1 mps 732 mmHg 89%
    02:00 +12°C° 0 mm 1 mps 732 mmHg 88%
    03:00 +12°C° 0 mm 1 mps 732 mmHg 87%
    04:00 +12°C° 0 mm 1 mps 732 mmHg 86%
    05:00 +13°C° 0 mm 1 mps 732 mmHg 80%
    06:00 +15°C° 0 mm 1 mps 732 mmHg 75%
    07:00 +18°C° 0 mm 1 mps 732 mmHg 69%
    08:00 +20°C° 0 mm 1 mps 732 mmHg 63%
    09:00 +21°C° 0 mm 1 mps 732 mmHg 58%
    10:00 +21°C° 0 mm 2 mps 732 mmHg 52%
    11:00 +23°C° 0.1 mm 2 mps 731 mmHg 53%
    12:00 +22°C° 0.1 mm 3 mps 731 mmHg 53%
    13:00 +22°C° 0.1 mm 4 mps 731 mmHg 54%
    14:00 +22°C° 0.1 mm 4 mps 730 mmHg 56%
    15:00 +21°C° 0.1 mm 4 mps 730 mmHg 58%
    16:00 +21°C° 0.1 mm 4 mps 730 mmHg 60%
    17:00 +19°C° 0 mm 3 mps 730 mmHg 68%
    18:00 +17°C° 0 mm 2 mps 730 mmHg 75%
    19:00 +15°C° 0 mm 1 mps 730 mmHg 83%
    20:00 +15°C° 0 mm 1 mps 730 mmHg 84%
    21:00 +14°C° 0 mm 1 mps 730 mmHg 86%
    22:00 +13°C° 0 mm 1 mps 731 mmHg 87%
    23:00 +13°C° 0 mm 1 mps 731 mmHg 87%

    Day after tomorrow, 3 June, Wednesday

    Time Temperature Precipitation Wind Pressure Humidity
    00:00 +13°C° 0 mm 1 mps 730 mmHg 86%
    01:00 +13°C° 0 mm 1 mps 730 mmHg 86%
    02:00 +13°C° 0 mm 1 mps 730 mmHg 85%
    03:00 +13°C° 0 mm 1 mps 730 mmHg 84%
    04:00 +13°C° 0 mm 1 mps 730 mmHg 83%
    05:00 +14°C° 0 mm 1 mps 730 mmHg 78%
    06:00 +16°C° 0 mm 1 mps 730 mmHg 73%
    07:00 +19°C° 0 mm 1 mps 730 mmHg 67%
    08:00 +20°C° 0.1 mm 1 mps 730 mmHg 63%
    09:00 +21°C° 0.1 mm 1 mps 731 mmHg 59%
    10:00 +21°C° 0.1 mm 2 mps 731 mmHg 54%
    11:00 +21°C° 0.1 mm 2 mps 731 mmHg 52%
    12:00 +22°C° 0.1 mm 3 mps 731 mmHg 50%
    13:00 +23°C° 0.1 mm 4 mps 730 mmHg 48%
    14:00 +22°C° 0 mm 4 mps 730 mmHg 49%
    15:00 +22°C° 0 mm 4 mps 730 mmHg 51%
    16:00 +21°C° 0 mm 3 mps 730 mmHg 52%
    17:00 +19°C° 0 mm 3 mps 730 mmHg 60%
    18:00 +17°C° 0 mm 2 mps 730 mmHg 67%
    19:00 +15°C° 0 mm 1 mps 730 mmHg 75%
    20:00 +15°C° 0 mm 1 mps 731 mmHg 75%
    21:00 +14°C° 0 mm 1 mps 731 mmHg 75%
    22:00 +14°C° 0 mm 1 mps 732 mmHg 75%
    23:00 +14°C° 0 mm 1 mps 732 mmHg 72%

    4 June, Thursday

    Time Temperature Precipitation Wind Pressure Humidity
    00:00 +14°C° 0 mm 1 mps 732 mmHg 70%
    01:00 +13°C° 0 mm 1 mps 732 mmHg 67%
    02:00 +13°C° 0 mm 1 mps 732 mmHg 65%
    03:00 +13°C° 0 mm 1 mps 732 mmHg 63%
    04:00 +13°C° 0 mm 1 mps 732 mmHg 61%
    05:00 +15°C° 0 mm 1 mps 732 mmHg 58%
    06:00 +18°C° 0 mm 1 mps 732 mmHg 54%
    07:00 +20°C° 0 mm 1 mps 732 mmHg 50%
    08:00 +22°C° 0 mm 1 mps 733 mmHg 48%
    09:00 +23°C° 0 mm 1 mps 733 mmHg 46%
    10:00 +24°C° 0 mm 2 mps 733 mmHg 45%
    11:00 +25°C° 0 mm 2 mps 733 mmHg 45%
    12:00 +26°C° 0 mm 3 mps 733 mmHg 46%
    13:00 +26°C° 0 mm 4 mps 733 mmHg 46%
    14:00 +26°C° 0.1 mm 4 mps 733 mmHg 48%
    15:00 +25°C° 0.1 mm 5 mps 733 mmHg 49%
    16:00 +25°C° 0.1 mm 5 mps 733 mmHg 51%
    17:00 +22°C° 0 mm 4 mps 733 mmHg 56%
    18:00 +20°C° 0 mm 3 mps 733 mmHg 61%
    19:00 +18°C° 0 mm 2 mps 733 mmHg 66%
    20:00 +18°C° 0 mm 2 mps 733 mmHg 66%
    21:00 +17°C° 0 mm 2 mps 734 mmHg 65%
    22:00 +17°C° 0 mm 2 mps 734 mmHg 65%
    23:00 +16°C° 0 mm 2 mps 734 mmHg 64%

    5 June, Friday

    Time Temperature Precipitation Wind Pressure Humidity
    00:00 +16°C° 0 mm 1 mps 734 mmHg 64%
    01:00 +16°C° 0 mm 1 mps 734 mmHg 64%
    02:00 +16°C° 0 mm 1 mps 734 mmHg 63%
    03:00 +16°C° 0 mm 1 mps 734 mmHg 62%
    04:00 +16°C° 0 mm 1 mps 734 mmHg 61%
    05:00 +18°C° 0 mm 1 mps 734 mmHg 57%
    06:00 +20°C° 0 mm 1 mps 734 mmHg 54%
    07:00 +22°C° 0 mm 1 mps 735 mmHg 51%
    08:00 +24°C° 0 mm 1 mps 735 mmHg 47%
    09:00 +25°C° 0 mm 2 mps 735 mmHg 42%
    10:00 +27°C° 0 mm 2 mps 735 mmHg 38%
    11:00 +25°C° 0 mm 3 mps 735 mmHg 45%
    12:00 +23°C° 0 mm 4 mps 735 mmHg 51%
    13:00 +22°C° 0 mm 4 mps 735 mmHg 57%
    14:00 +21°C° 1 mm 4 mps 735 mmHg 64%
    15:00 +20°C° 1 mm 3 mps 735 mmHg 71%
    16:00 +19°C° 1 mm 2 mps 735 mmHg 77%
    17:00 +19°C° 0 mm 2 mps 734 mmHg 79%
    18:00 +19°C° 0 mm 2 mps 734 mmHg 80%
    19:00 +20°C° 0 mm 1 mps 734 mmHg 81%
    20:00 +18°C° 0 mm 2 mps 734 mmHg 80%
    21:00 +18°C° 0 mm 2 mps 734 mmHg 79%
    22:00 +17°C° 0 mm 2 mps 734 mmHg 78%
    23:00 +17°C° 0 mm 2 mps 734 mmHg 74%

    6 June, Saturday

    Time Temperature Precipitation Wind Pressure Humidity
    00:00 +17°C° 0 mm 2 mps 734 mmHg 71%
    01:00 +17°C° 0 mm 2 mps 733 mmHg 68%
    02:00 +17°C° 0 mm 2 mps 733 mmHg 64%
    03:00 +17°C° 0 mm 2 mps 733 mmHg 60%
    04:00 +17°C° 0 mm 2 mps 733 mmHg 56%
    05:00 +20°C° 0 mm 1 mps 733 mmHg 53%
    06:00 +22°C° 0 mm 1 mps 733 mmHg 51%
    07:00 +24°C° 0 mm 1 mps 733 mmHg 48%
    08:00 +25°C° 0 mm 1 mps 733 mmHg 44%
    09:00 +27°C° 0 mm 1 mps 733 mmHg 41%
    10:00 +28°C° 0 mm 2 mps 733 mmHg 37%
    11:00 +28°C° 0 mm 2 mps 733 mmHg 38%
    12:00 +29°C° 0 mm 2 mps 732 mmHg 39%
    13:00 +29°C° 0 mm 3 mps 732 mmHg 40%
    14:00 +29°C° 0 mm 3 mps 731 mmHg 43%
    15:00 +28°C° 0 mm 3 mps 731 mmHg 46%
    16:00 +27°C° 0 mm 3 mps 730 mmHg 50%
    17:00 +25°C° 0.2 mm 2 mps 730 mmHg 61%
    18:00 +21°C° 0.2 mm 2 mps 730 mmHg 72%
    19:00 +19°C° 0.2 mm 2 mps 730 mmHg 83%
    20:00 +20°C° 0.2 mm 1 mps 730 mmHg 83%
    21:00 +19°C° 0.2 mm 1 mps 730 mmHg 83%
    22:00 +19°C° 0.2 mm 1 mps 730 mmHg 83%
    23:00 +19°C° 0.2 mm 1 mps 730 mmHg 84%
    Show more